www.pogodaiklimat.ru

Погода и климат >> Архив погоды >> Россия >> Красноярский край >> Снежногорск


ПОГОДА в Снежногорске

  • Прогноз погоды в Снежногорске
  • Монитор погоды в Снежногорске

АРХИВ ПОГОДЫ в Снежногорске

Время (UTC), дата Ветер
(напр.,м/с)
 
Видим.   Явления Облачность Т
(С)
Тd
(С)
f
(%)
Тe
(С)
Тes
(С)
Комфортность P
(гПа)
Po
(гПа)
Тmin
(С)
Tmax
(С)
R
(мм)
R24
(мм)
S
(см)
06 12.02 ЮЗ 4
{11}
4000 м слаб. снег 10/0 2000 м
[As op]
-18.9 -22.2 75 -28 -27 1016.5 1003.8
09 12.02 ЮЗ 5-10
{13}
4000 м слаб. снег {метель} 10/0 2000 м
[As op]
-18.6 -21.9 75 -28 -28 1015.9 1003.2
12 12.02 ЮЗ 5-10
{12}
4000 м слаб. снег {метель} 10/0 2000 м
[As op]
-18.5 -21.8 75 -28 -28 1015.3 1002.6 -18.5 1
15 12.02 Ю 5
{11}
4000 м слаб. снег {метель} 10/0 2000 м
[As op]
-18.2 -20.8 80 -28 -28 1015.3 1002.6
18 12.02 Ю 5
{10}
4000 м слаб. снег {метель} 10/0 2000 м
[As op]
-17.9 -20.5 80 -27 -27 1015.3 1002.6
21 12.02 ЮЗ 5-10
{13}
4000 м слаб. снег {метель} 10/0 2000 м
[As op]
-17.1 -19.7 80 -26 -26 1015.2 1009.5
00 13.02 ЮЗ 5
{11}
4000 м слаб. снег {метель} 10/0 2000 м
[As op]
-17.0 -21.2 70 -26 -26 1014.8 1002.3 -18.5 1 107
03 13.02 ЮЗ 5
{11}
4000 м слаб. снег {метель} 10/0 2000 м
[As op]
-16.0 -18.7 80 -25 -25 1014.7 1002.2
06 13.02 ЮЗ 5
{10}
2000 м слаб. снег {метель} 10/0 2000 м
[Ac As]
-15.0 -17.7 80 -24 -24 1015.0 1002.5
09 13.02 ЮЗ 4 2000 м слаб. снег {метель} 10/0 2000 м
[Ac As]
-14.0 -16.7 80 -22 -22 1015.7 1003.2
12 13.02 ЮЗ 5-10
{11}
4000 м слаб. снег {метель} 10/0 50 м
[Ac As]
-13.7 -16.4 80 -22 -22 1016.6 1004.1 -13.7 3
15 13.02 ЮЗ 6-10
{13}
4000 м слаб. снег {метель} 10/0 2000 м
[Ac As]
-14.2 -16.9 80 -24 -24 1017.0 1004.5
18 13.02 ЮЗ 6-11
{13}
4000 м слаб. снег {метель} 10/0 2000 м
[Ac As]
-15.5 -18.2 80 -25 -25 1016.4 1003.8
21 13.02 ЮЗ 5-11
{13}
4000 м слаб. снег {метель} 10/0 2000 м
[Ac As]
-15.0 -17.7 80 -24 -24 1015.0 1002.5
00 14.02 ЮЗ 5-13
{14}
4000 м слаб. снег {метель} 10/0 2000 м
[Ac As]
-15.0 -17.7 80 -24 -24 1012.5 1000.1 -15.5 0.4 107
03 14.02 ЮЗ 6-12
{14}
4000 м слаб. снег {метель} 10/0 2000 м
[As op]
-15.6 -18.3 80 -25 -25 1011.2 998.7 -15.7
06 14.02 ЮЗ 5
{14}
4000 м слаб. снег {метель} 10/0 2000 м
[As op]
-15.3 -18.0 80 -24 -24 1010.5 998.0
09 14.02 ЮЗ 4
{12}
2000 м снег {метель} 10/0 2000 м
[As op]
-14.7 -17.4 80 -22 -22 1009.4 997.0
12 14.02 ЮЗ 5
{11}
4000 м слаб. снег {метель} 10/0 2000 м
[As op]
-14.1 -16.8 80 -23 -23 1007.3 994.9 -14.1 4
15 14.02 ЮЗ 4
{11}
4000 м слаб. снег {метель} 10/0 2000 м
[As op]
-13.1 -15.8 80 -20 -20 1004.1 991.9
18 14.02 Ю 5
{10}
4000 м слаб. снег {метель} 10/0 2000 м
[As op]
-12.1 -14.8 80 -20 -20 999.8 987.6
21 14.02 Ю 6-11
{12}
4000 м слаб. снег {метель} 10/0 600 м
[As op]
-10.5 -12.5 85 -19 -19 996.6 984.5
00 15.02 ЮЗ 5
{12}
4000 м слаб. снег {метель} 10/0 600 м
[As op]
-9.2 -11.2 85 -17 -17 995.1 983.1 -14.1 3 126
03 15.02 Ю 4-10
{11}
4000 м слаб. снег {метель} 10/0 600 м
[As op]
-7.7 -9.5 87 -14 -14 994.0 982.1
06 15.02 ЮЗ 4
{10}
10 км слаб. снег {метель} 10/0 600 м
[As op]
-8.0 -9.8 87 -15 -15 993.7 981.8
09 15.02 З 6
{13}
10 км слаб. снег {метель} 10/0 2000 м
[Ac As]
-8.6 -10.5 86 -17 -17 997.2 985.2
12 15.02 З 5
{13}
10 км слаб. снег {метель} 10/0 2000 м
[Ac As]
-11.6 -13.6 85 -20 -20 1001.8 989.6 -7.7 1
15 15.02 СЗ 4
{10}
4000 м слаб. снег {метель} 10/0 2000 м
[As op]
-15.1 -17.8 80 -23 -23 1004.7 992.4
18 15.02 СЗ 3 4000 м слаб. снег {метель} 10/0 2000 м
[As op]
-18.0 -21.4 75 -25 -25 1007.4 994.8
21 15.02 СЗ 4 10 км слаб. снег 10/0
[Cs]
-19.8 -23.1 75 -29 -29 1010.0 997.3
00 16.02 З 2 10 км {снег} ясно -24.2 -28.1 70 -31 -31 опасность
обморожения
1012.6 999.5 -24.2 1 131
03 16.02 Ю 1 20 км ясно -24.0 -28.0 69 -27 -27 1013.0 1000.0
06 16.02 В 2 20 км ясно -23.6 -27.6 70 -30 -29 1012.4 999.4
09 16.02 В 4 20 км ясно -24.4 -28.3 70 -34 -34 опасность
обморожения
1010.1 997.2
12 16.02 В 4 10 км позёмок ясно -23.7 -27.6 70 -33 -33 опасность
обморожения
1008.2 995.3 -23.6
15 16.02 В 4 10 км позёмок 4/0
[Cs]
-24.2 -28.1 70 -34 -34 опасность
обморожения
1005.4 992.5
18 16.02 В 4
{10}
10 км позёмок 4/0
[Cs]
-23.5 -27.5 70 -33 -33 опасность
обморожения
1003.3 990.5
21 16.02 В 3 10 км {метель} 3/0
[Cs]
-24.1 -28.1 69 -33 -33 опасность
обморожения
1001.8 989.0
00 17.02 В 3 10 км 4/0
[Cs]
-25.0 -28.8 71 -34 -34 опасность
обморожения
1001.2 988.4 -25.0 131
03 17.02 В 1 10 км слаб. снег 10/0
[Ac trans Cs]
-24.4 -28.3 70 -28 -28 1001.2 988.4
06 17.02 ЮВ 1 20 км {снег} 8/0
[Ci sp]
-24.3 -28.2 70 -28 -27 1001.8 989.0
09 17.02 ЮЗ 3 20 км 10/0
[Ac trans Ci sp]
-22.8 -26.8 70 -31 -31 опасность
обморожения
1002.8 990.1
12 17.02 ЮЗ 3 10 км 10/0 2000 м
[Ac lent Ci sp]
-24.2 -28.1 70 -33 -33 опасность
обморожения
1003.7 990.9 -22.1 0.2
15 17.02 Ю 2 10 км слаб. снег 10/0
[Ac As]
-23.2 -27.1 70 -30 -30 1003.9 991.1
18 17.02 В 1 10 км слаб. снег 10/0
[Ac As]
-22.3 -26.2 70 -26 -26 1003.3 990.6
21 17.02 В 2 10 км слаб. снег 10/0
[Ac As]
-22.2 -25.4 75 -28 -28 1002.6 989.9
00 18.02 В 2 10 км слаб. снег 10/0 2000 м
[Ac trans Cs]
-23.0 -27.0 70 -29 -29 1002.0 989.3 -24.2 0.4 127
03 18.02 СВ 2 20 км {снег} 10/0
[Ac trans Cs]
-22.4 -26.3 70 -29 -29 1001.7 989.0
06 18.02 СВ 2 20 км {снег} 10/0
[Ac trans Cs]
-21.0 -25.0 70 -27 -26 1001.4 988.8
09 18.02 В 3 20 км 10/0
[Cs]
-20.0 -24.1 70 -28 -28 1001.4 988.8
12 18.02 В 3 10 км 10/0 2000 м
[Ac trans Cs]
-20.6 -24.6 70 -28 -28 1002.0 989.4 -20.0 0.0
15 18.02 В 2 10 км слаб. снег 10/0
[Cs]
-21.2 -25.2 70 -27 -27 1002.4 989.7
18 18.02 В 2 10 км слаб. снег 10/0
[Ac As]
-22.0 -26.0 70 -28 -28 1003.0 990.3
21 18.02 В 3 10 км слаб. снег 10/0
[Ac As]
-22.6 -26.6 70 -31 -31 опасность
обморожения
1003.3 990.6
00 19.02 ЮВ 3 10 км слаб. снег 10/0
[Cs]
-23.2 -27.1 70 -31 -31 опасность
обморожения
1004.0 991.2 -23.2 0.3 125
03 19.02 В 2 10 км слаб. снег 8/0
[Cs]
-23.5 -27.5 70 -30 -30 1004.3 991.5 -24.0

 

Местоположение метеостанции Снежногорск (Красноярский край, Россия): широта 68.10 долгота 87.77 высота над уровнем моря 94 м.

В архиве по умолчанию представлена погода в Снежногорске за последнюю неделю. Архивные данные за месяц целиком и за предыдущие месяцы, начиная с января 2011 года, Вы можете получить, выбрав интересующий диапазон дат из раскрывающегося списка и нажав кнопку "Ввод!".


*Определитесь, кто Вы:
робот инопланетянин человек

Внимание! Время в таблицах - всемирное. Для получения местного времени необходимо прибавить поправку, которая равна 7 ч.

Смотрите также архив погоды в соседних городах и на ближайших метеорологических станциях:

Погода в Горбиачине (Красноярский край, Россия) (69 км)
Погода в Игарке (Красноярский край, Россия) (86 км)
Погода в Потапово (Красноярский край, Россия) (89 км)
Погода в Светлогорске (Красноярский край, Россия) (131 км)
Погода в Норильске (Красноярский край, Россия) (138 км)
Погода в Курейке (Красноярский край, Россия) (183 км)
Погода в Советской Речке (Красноярский край, Россия) (221 км)
Погода в Туруханске (Красноярский край, Россия) (258 км)
Погода в Агате (Эвенкия, Россия) (278 км)
Погода в Карауле (Красноярский край, Россия) (286 км)

Пояснения к столбцам:

Ветер - указаны скорость ветра в м/с - средняя за 10 мин, порывы в срок и между сроками (в фигурных скобках) и направление, откуда дует ветер: С - северный, СВ - северо-восточный, В - восточный, ЮВ - юго-восточный, Ю - южный, ЮЗ - юго-западный, З - западный, СЗ - северо-западный.
Видимость - горизонтальная дальность видимости в метрах или километрах. При видимости от 1 до 10 км при отсутствии осадков обычно наблюдается дымка, при ухудшении видимости до 1 км и менее - туман. В сухую погоду видимость может ухудшаться дымом, пылью или мглою.
Явления - указаны атмосферные явления, наблюдавшиеся в срок или в последний час перед сроком; фигурными скобками обозначены явления, наблюдавшиеся между сроками (за 1-3 часа до срока); квадратными скобками обозначены град или гололедные отложения с указанием их диаметра в мм.
Облачность - указаны через наклонную черту общая и нижняя облачность в баллах и высота нижней границы облаков в метрах; квадратными скобками обозначены формы облаков: Ci - перистые, Cs - перисто-слоистые, Cc - перисто-кучевые, Ac - высококучевые, As - высокослоистые, Sc - слоисто-кучевые, Ns - слоисто-дождевые, Cu - кучевые, Cb - кучево-дождевые. Подробнее классификацию облаков см. в Атласе облаков (PDF).
T - Температура воздуха - температура, измеренная на высоте 2 м над землей.
Td - Температура точки росы - температура, при понижении до которой содержащийся в воздухе водяной пар достигнет насыщения.
f - Относительная влажность воздуха - влажноcть воздуха, измеренная на высоте 2 м над землей.
Te - Эффективная температура - температура, которую ощущает одетый по сезону человек в тени. Характеристика душности погоды. При расчете учитывается влияние влажности воздуха и скорости ветра на теплоощущения человека.
Tes - Эффективная температура на солнце - температура, которую ощущает человек, с поправкой на солнечный нагрев. Характеристика знойности погоды. Зависит от высоты солнца над горизонтом, облачности и скорости ветра. Ночью, в пасмурную погоду, а также при ветре 12 м/с и более поправка равна нулю.
P - Атмосферное давление - приведенное к уровню моря атмосферное давление.
Po - Атмосферное давление - измеренное на уровне метеостанции атмосферное давление.
Tmin - Минимальная температура - минимум температуры воздуха на высоте 2 м над землей.
Tmax - Максимальная температура - максимум температуры воздуха на высоте 2 м над землей.
R - Количество осадков - Количество выпавших осадков за период времени, мм. При наведении курсора мыши на число - период времени, за который выпало указанное количество осадков.
R24 - Количество осадков - Количество выпавших осадков за 24 часа, мм.
S - Снежный покров - Высота снежного покрова, см. При наведении курсора мыши на число - состояние снежного покрова и степень покрытия местности в баллах.